Regional Weather Roundup
Issued by NWS Sterling, VA

Home | Current Version | Previous Version | Graphics & Text | Print | Product List | Glossary On
Versions: 1 2 3 4 5 6 7 8 9 10 11 12 13 14 15 16 17 18 19 20 21 22 23 24 25 26 27 28
000
ASUS41 KLWX 261611
RWRLWX

REGIONAL WEATHER ROUNDUP
NATIONAL WEATHER SERVICE BALTIMORE MD/WASHINGTON DC
1200 PM EDT SAT MAY 26 2018

Note: "FAIR" indicates few or no clouds below 12,000 feet
with no significant weather and/or obstructions to visibility.
 TC=TEMPERATURE CELSIUS

 * =Non NWS site. Station does not report precipitation (e.g. rain,
    snow, etc.), thunder, or fog.

DCZ001-MDZ009-015-VAZ040>042-051-053>054-261700-
WASHINGTON METRO

CITY           SKY/WX    TMP DP  RH WIND       PRES   REMARKS
WASHINGTON NAT FAIR      83  70  64 S14       29.88S
DULLES         FAIR      85  69  58 CALM      29.88S
ANDREWS AFB    FAIR      85  68  55 CALM      29.88S
FT BELVOIR     FAIR      84  70  62 S7        29.88S
QUANTICO       FAIR      81  73  76 S10       29.89S
COLLEGE PARK*  FAIR      85  67  54 SW3       29.86S
LEESBURG*      PTSUNNY   88  70  55 CALM      29.89S HX  92
MANASSAS*      FAIR      86  72  62 S7        29.88F HX  92
GAITHERSBURG*  FAIR      85  69  58 CALM      29.90S

$$

MDZ006>007-011-014-261700-
BALTIMORE METRO

CITY           SKY/WX    TMP DP  RH WIND       PRES   REMARKS
BWI AIRPORT    PTSUNNY   87  70  56 SW5       29.85F HX  92
MD SCIENCE CTR   N/A     91  69  48 MISG      29.84F HX  96
MARTIN STATE   MOSUNNY   82  75  78 SE10      29.87F
ANNAPOLIS      FAIR     N/A N/A N/A E12       29.86F
FORT MEADE*    FAIR      84  70  61 S7        29.88F

$$

MDZ012-015-019>023-261700-
MARYLAND EASTERN SHORE

CITY           SKY/WX    TMP DP  RH WIND       PRES   REMARKS
OCEAN CITY     FAIR      86  70  58 W16       29.89F HX  90
SALISBURY      FAIR      85  70  60 SW14      29.89F
BAY BRIDGE AP* FAIR      86  72  62 SE10      29.87S HX  92
CAMBRIDGE*     SUNNY     84  70  61 SW7       29.88F
EASTON*        SUNNY     84  70  61 SW12      29.91F

$$

MDZ017>025-261700-
SOUTHERN MARYLAND

CITY           SKY/WX    TMP DP  RH WIND       PRES   REMARKS
PATUXENT RIVER FAIR      89  70  53 SW14      29.88F HX  94
ST INIGOES     FAIR      84  72  67 SW10      29.88F
LEONARDTOWN*   FAIR      82  70  65 SW8G18    29.91S

$$

MDZ003>005-261700-
NORTH CENTRAL MARYLAND

CITY           SKY/WX    TMP DP  RH WIND       PRES   REMARKS
FREDERICK*     MOSUNNY   88  68  51 SW3       29.89F HX  91
HAGERSTOWN APT FAIR      85  68  56 VRB5      29.88S
WESTMINSTER*   FAIR      86  66  51 W9        29.88S

$$

MDZ501>502-261700-
WESTERN MARYLAND

CITY           SKY/WX    TMP DP  RH WIND       PRES   REMARKS
OAKLAND*       FAIR      73  61  64 W6        30.00S
CUMBERLAND*    FAIR      86  68  54 S5        29.92S

$$

VAZ025>031-261700-
SHENANDOAH VALLEY

CITY           SKY/WX    TMP DP  RH WIND       PRES   REMARKS
WINCHESTER*    PTSUNNY   82  68  61 SW7       29.91S
FRONT ROYAL*   FAIR      84  72  65 S3        29.89F
LURAY*         FAIR      84  68  58 SW5       29.91F
NEW MARKET*    PTSUNNY   83  66  55 CALM      29.89F
STAUNTON*      FAIR      79  67  67 SW7       29.96S
WAYNESBORO*    FAIR      78  67  69 W6        29.96S

$$

WVZ021-048>050-054>055-261700-
EASTERN WEST VIRGINIA PANHANDLE

CITY           SKY/WX    TMP DP  RH WIND       PRES   REMARKS
MARTINSBURG    FAIR      85  68  56 VRB5      29.87S
PETERSBURG*    FAIR      83  68  60 S5        29.90F

$$

VAZ036>039-050-261700-
CENTRAL FOOTHILLS

CITY           SKY/WX    TMP DP  RH WIND       PRES   REMARKS
CHARLOTTESVILL FAIR      82  70  66 S9        29.91F
CULPEPER*      FAIR      86  68  55 SW6       29.90F
ORANGE*        FAIR      81  70  69 S7        29.91S
GORDONSVILLE*  FAIR      82  72  72 S12       29.91F
WARRENTON*     FAIR      86  68  54 S6        29.89S HX  90

$$

VAZ055>057-261700-
NORTH AND CENTRAL PIEDMONT

CITY           SKY/WX    TMP DP  RH WIND       PRES   REMARKS
FREDERICKSBRG* FAIR      85  70  61 SW9       29.88F
STAFFORD*      FAIR      84  72  67 SW3       29.93F HX  90

$$

NCZ024-NYZ072-PAZ021-071-VAZ022-071-261700-
OTHER REGIONAL OBSERVATIONS

CITY           SKY/WX    TMP DP  RH WIND       PRES   REMARKS
NEW YORK CITY  FAIR      85  67  54 CALM      29.84F
PHILADELPHIA   FAIR      82  68  62 SW6       29.84F
PITTSBURGH     FAIR      83  59  44 W9        29.89S
ROANOKE        LGT RAIN  77  67  71 S7        29.98F
RICHMOND       PTSUNNY   84  70  62 SW15G23   29.92F
RALEIGH        PTSUNNY   77  71  82 SW12      29.99F

$$

ANZ530>537-261700-
MARINE OBSERVATIONS

STATION/POSITION TIME  TEMP    WIND        PRES
                       AIR SEA DIR/SP/G
                 (UTC) (F)     (DEG/KT/KT) (MB)
THOMAS PT LIGHT  1600   75 70  160/ 10/ 11 1012.2F
BALT KEY BRIDGE  1542   83     170/  1/  2 1010.8F
COVE POINT       1542   81     270/ 15/ 19 1012.5F
LEWISETTA        1542   82 75  230/ 16/ 18 1012.3F
SOLOMONS ISLAND  1542   80 72  240/ 12/ 15 1011.9F
PINEY POINT      1542          260/  6/  8   N/A

$$





USA.gov is the U.S. government's official web portal to all federal, state and local government web resources and services.